Time,TemperatureF,DewpointF,PressureIn,WindDirection,WindDirectionDegrees,WindSpeedMPH,WindSpeedGustMPH,Humidity,HourlyPrecipIn,Conditions,Clouds,dailyrainin,SoftwareType,DateUTC
2013-04-08 00:00:00,61.0,37.8,28.97,South,180,4.3,4.3,42,0.00,,,0.00,VWS V14.01,2013-04-08 04:00:00,
2013-04-08 00:09:00,61.0,37.8,28.97,South,180,4.3,4.3,42,0.00,,,0.00,VWS V14.01,2013-04-08 04:09:00,
2013-04-08 00:14:00,61.0,38.3,29.00,South,180,4.3,4.3,43,0.00,,,0.00,VWS V14.01,2013-04-08 04:14:00,
2013-04-08 00:20:00,61.0,38.9,29.00,South,180,4.3,4.3,44,0.00,,,0.00,VWS V14.01,2013-04-08 04:20:00,
2013-04-08 00:25:00,61.0,38.3,29.00,SW,225,5.4,5.4,43,0.00,,,0.00,VWS V14.01,2013-04-08 04:25:00,
2013-04-08 00:30:00,61.0,38.3,29.00,SW,225,5.4,5.4,43,0.00,,,0.00,VWS V14.01,2013-04-08 04:30:00,
2013-04-08 00:35:00,61.0,38.3,29.00,SW,225,5.4,5.4,43,0.00,,,0.00,VWS V14.01,2013-04-08 04:35:00,
2013-04-08 00:40:00,61.0,38.9,29.00,SW,225,5.4,5.4,44,0.00,,,0.00,VWS V14.01,2013-04-08 04:40:00,
2013-04-08 00:45:00,61.2,39.1,29.00,SW,225,5.4,5.4,44,0.00,,,0.00,VWS V14.01,2013-04-08 04:45:00,
2013-04-08 00:50:00,61.0,38.9,29.00,SW,225,5.4,5.4,44,0.00,,,0.00,VWS V14.01,2013-04-08 04:50:00,
2013-04-08 00:55:00,60.6,39.8,29.00,SW,225,5.4,5.4,46,0.00,,,0.00,VWS V14.01,2013-04-08 04:55:00,
2013-04-08 01:00:00,60.4,40.1,29.00,SW,225,5.4,5.4,47,0.00,,,0.00,VWS V14.01,2013-04-08 05:00:00,
2013-04-08 01:05:00,60.4,40.1,29.00,SW,225,5.4,5.4,47,0.00,,,0.00,VWS V14.01,2013-04-08 05:05:00,
2013-04-08 01:10:00,60.4,40.1,29.00,SW,225,5.4,5.4,47,0.00,,,0.00,VWS V14.01,2013-04-08 05:10:00,
2013-04-08 01:15:00,60.1,40.3,29.00,SW,225,5.4,5.4,48,0.00,,,0.00,VWS V14.01,2013-04-08 05:15:00,
2013-04-08 01:20:00,60.1,39.8,29.00,SW,225,5.4,5.4,47,0.00,,,0.00,VWS V14.01,2013-04-08 05:20:00,
2013-04-08 01:25:00,59.9,39.6,29.00,SW,225,5.4,5.4,47,0.00,,,0.00,VWS V14.01,2013-04-08 05:25:00,
2013-04-08 01:30:00,59.9,39.6,29.00,SW,225,5.4,5.4,47,0.00,,,0.00,VWS V14.01,2013-04-08 05:30:00,
2013-04-08 01:40:00,59.7,40.5,29.00,SW,225,6.3,6.3,49,0.00,,,0.00,VWS V14.01,2013-04-08 05:40:00,
2013-04-08 01:45:00,59.4,39.7,29.00,SW,225,6.3,6.3,48,0.00,,,0.00,VWS V14.01,2013-04-08 05:45:00,
2013-04-08 01:50:00,59.4,40.2,29.00,SW,225,6.3,6.3,49,0.00,,,0.00,VWS V14.01,2013-04-08 05:50:00,
2013-04-08 01:55:00,59.2,40.0,29.00,SW,225,6.3,6.3,49,0.00,,,0.00,VWS V14.01,2013-04-08 05:55:00,
2013-04-08 02:00:00,59.2,40.0,29.00,SW,225,6.3,6.3,49,0.00,,,0.00,VWS V14.01,2013-04-08 06:00:00,
2013-04-08 02:05:00,58.6,40.6,29.00,SW,225,6.3,6.3,51,0.00,,,0.00,VWS V14.01,2013-04-08 06:05:00,
2013-04-08 02:10:00,58.5,40.4,29.00,SW,225,6.3,6.3,51,0.00,,,0.00,VWS V14.01,2013-04-08 06:10:00,
2013-04-08 02:15:00,58.5,40.4,29.00,SW,225,6.3,6.3,51,0.00,,,0.00,VWS V14.01,2013-04-08 06:15:00,
2013-04-08 02:20:00,58.5,40.4,29.00,SW,225,6.3,6.3,51,0.00,,,0.00,VWS V14.01,2013-04-08 06:20:00,
2013-04-08 02:25:00,58.3,40.2,29.00,SW,225,6.3,6.3,51,0.00,,,0.00,VWS V14.01,2013-04-08 06:25:00,
2013-04-08 02:31:00,58.1,40.6,29.00,SW,225,6.3,6.3,52,0.00,,,0.00,VWS V14.01,2013-04-08 06:31:00,
2013-04-08 02:36:00,57.9,40.9,29.00,SW,225,6.3,6.3,53,0.00,,,0.00,VWS V14.01,2013-04-08 06:36:00,
2013-04-08 02:41:00,57.9,40.4,29.00,SW,225,6.3,6.3,52,0.00,,,0.00,VWS V14.01,2013-04-08 06:41:00,
2013-04-08 02:46:00,57.6,40.6,29.00,SW,225,6.3,6.3,53,0.00,,,0.00,VWS V14.01,2013-04-08 06:46:00,
2013-04-08 03:00:00,57.4,40.4,28.97,SW,225,6.3,6.3,53,0.00,,,0.00,VWS V14.01,2013-04-08 07:00:00,
2013-04-08 03:06:00,57.0,41.0,28.97,SW,225,6.3,6.3,55,0.00,,,0.00,VWS V14.01,2013-04-08 07:06:00,
2013-04-08 03:11:00,57.0,41.5,28.97,SW,225,6.3,6.3,56,0.00,,,0.00,VWS V14.01,2013-04-08 07:11:00,
2013-04-08 03:16:00,56.8,41.3,28.97,SW,225,6.3,6.3,56,0.00,,,0.00,VWS V14.01,2013-04-08 07:16:00,
2013-04-08 03:21:00,56.7,41.6,28.97,SW,225,6.3,6.3,57,0.00,,,0.00,VWS V14.01,2013-04-08 07:21:00,
2013-04-08 03:26:00,56.7,41.6,28.97,SW,225,6.3,6.3,57,0.00,,,0.00,VWS V14.01,2013-04-08 07:26:00,
2013-04-08 03:36:00,56.5,41.5,28.97,SW,225,6.3,6.3,57,0.00,,,0.00,VWS V14.01,2013-04-08 07:36:00,
2013-04-08 03:41:00,56.3,41.7,28.97,SW,225,6.3,6.3,58,0.00,,,0.00,VWS V14.01,2013-04-08 07:41:00,
2013-04-08 03:47:00,56.1,41.6,28.97,SW,225,6.3,6.3,58,0.00,,,0.00,VWS V14.01,2013-04-08 07:47:00,
2013-04-08 03:52:00,55.9,41.4,28.97,SW,225,6.3,6.3,58,0.00,,,0.00,VWS V14.01,2013-04-08 07:52:00,
2013-04-08 03:57:00,55.8,41.2,28.97,SW,225,6.3,6.3,58,0.00,,,0.00,VWS V14.01,2013-04-08 07:57:00,
2013-04-08 04:02:00,55.4,41.3,28.97,SW,225,6.3,6.3,59,0.00,,,0.00,VWS V14.01,2013-04-08 08:02:00,
2013-04-08 04:07:00,55.0,41.0,28.97,SW,225,6.3,6.3,59,0.00,,,0.00,VWS V14.01,2013-04-08 08:07:00,
2013-04-08 04:12:00,54.9,41.2,28.97,SW,225,6.3,6.3,60,0.00,,,0.00,VWS V14.01,2013-04-08 08:12:00,
2013-04-08 04:17:00,54.5,40.9,28.97,SW,225,6.3,6.3,60,0.00,,,0.00,VWS V14.01,2013-04-08 08:17:00,
2013-04-08 04:22:00,54.1,40.6,28.97,SW,225,6.3,6.3,60,0.00,,,0.00,VWS V14.01,2013-04-08 08:22:00,
2013-04-08 04:27:00,54.0,40.4,28.97,SW,225,6.3,6.3,60,0.00,,,0.00,VWS V14.01,2013-04-08 08:27:00,
2013-04-08 04:32:00,53.8,40.2,28.97,SW,225,6.3,6.3,60,0.00,,,0.00,VWS V14.01,2013-04-08 08:32:00,
2013-04-08 04:37:00,53.6,40.1,28.97,SW,225,6.3,6.3,60,0.00,,,0.00,VWS V14.01,2013-04-08 08:37:00,
2013-04-08 04:42:00,53.6,40.5,28.97,SW,225,6.3,6.3,61,0.00,,,0.00,VWS V14.01,2013-04-08 08:42:00,
2013-04-08 04:47:00,53.6,40.5,28.97,SW,225,6.3,6.3,61,0.00,,,0.00,VWS V14.01,2013-04-08 08:47:00,
2013-04-08 04:52:00,53.6,40.5,28.97,SW,225,6.3,6.3,61,0.00,,,0.00,VWS V14.01,2013-04-08 08:52:00,
2013-04-08 04:57:00,53.6,40.9,28.97,SW,225,6.3,6.3,62,0.00,,,0.00,VWS V14.01,2013-04-08 08:57:00,
2013-04-08 05:02:00,53.8,41.1,28.97,SW,225,6.3,6.3,62,0.00,,,0.00,VWS V14.01,2013-04-08 09:02:00,
2013-04-08 05:07:00,54.1,41.8,28.97,SW,225,6.3,6.3,63,0.00,,,0.00,VWS V14.01,2013-04-08 09:07:00,
2013-04-08 05:12:00,54.3,41.6,28.97,SW,225,6.3,6.3,62,0.00,,,0.00,VWS V14.01,2013-04-08 09:12:00,
2013-04-08 05:17:00,54.3,42.0,28.97,SW,225,6.3,6.3,63,0.00,,,0.00,VWS V14.01,2013-04-08 09:17:00,
2013-04-08 05:22:00,54.3,42.0,28.97,SW,225,6.3,6.3,63,0.00,,,0.00,VWS V14.01,2013-04-08 09:22:00,
2013-04-08 05:27:00,54.5,42.2,28.97,SW,225,6.3,6.3,63,0.00,,,0.00,VWS V14.01,2013-04-08 09:27:00,
2013-04-08 05:32:00,54.5,42.2,28.97,SW,225,6.3,6.3,63,0.00,,,0.00,VWS V14.01,2013-04-08 09:32:00,
2013-04-08 05:37:00,54.7,42.3,28.97,SW,225,6.3,6.3,63,0.00,,,0.00,VWS V14.01,2013-04-08 09:37:00,
2013-04-08 05:42:00,54.7,42.3,28.97,SW,225,6.3,6.3,63,0.00,,,0.00,VWS V14.01,2013-04-08 09:42:00,
2013-04-08 05:47:00,54.7,42.8,28.97,SW,225,6.3,6.3,64,0.00,,,0.00,VWS V14.01,2013-04-08 09:47:00,
2013-04-08 05:52:00,54.5,42.6,28.97,SW,225,6.3,6.3,64,0.00,,,0.00,VWS V14.01,2013-04-08 09:52:00,
2013-04-08 05:57:00,54.5,42.6,28.97,SW,225,6.3,6.3,64,0.00,,,0.00,VWS V14.01,2013-04-08 09:57:00,
2013-04-08 06:02:00,54.5,42.6,28.97,SW,225,6.3,6.3,64,0.00,,,0.00,VWS V14.01,2013-04-08 10:02:00,
2013-04-08 06:07:00,54.5,42.6,28.97,SW,225,6.3,6.3,64,0.00,,,0.00,VWS V14.01,2013-04-08 10:07:00,
2013-04-08 06:12:00,54.5,42.6,28.97,SW,225,6.3,6.3,64,0.00,,,0.00,VWS V14.01,2013-04-08 10:12:00,
2013-04-08 06:20:00,54.7,42.8,28.97,SW,225,6.3,6.3,64,0.00,,,0.00,VWS V14.01,2013-04-08 10:20:00,
2013-04-08 06:30:00,54.5,42.6,28.97,SW,225,6.3,6.3,64,0.00,,,0.00,VWS V14.01,2013-04-08 10:30:00,
2013-04-08 06:38:00,54.5,42.6,28.97,SW,225,6.3,6.3,64,0.00,,,0.00,VWS V14.01,2013-04-08 10:38:00,
2013-04-08 06:43:00,54.5,42.6,28.97,SW,225,6.3,6.3,64,0.00,,,0.00,VWS V14.01,2013-04-08 10:43:00,
2013-04-08 06:48:00,54.5,42.6,28.97,SW,225,6.3,6.3,64,0.00,,,0.00,VWS V14.01,2013-04-08 10:48:00,
2013-04-08 06:53:00,54.5,42.6,28.97,SW,225,6.3,6.3,64,0.00,,,0.00,VWS V14.01,2013-04-08 10:53:00,
2013-04-08 06:58:00,54.5,42.6,28.97,SW,225,6.3,6.3,64,0.00,,,0.00,VWS V14.01,2013-04-08 10:58:00,
2013-04-08 07:03:00,54.5,42.6,28.97,SW,225,6.3,6.3,64,0.00,,,0.00,VWS V14.01,2013-04-08 11:03:00,
2013-04-08 07:08:00,54.5,42.6,28.97,SW,225,6.3,6.3,64,0.00,,,0.00,VWS V14.01,2013-04-08 11:08:00,
2013-04-08 07:13:00,54.5,42.6,28.97,SW,225,6.3,6.3,64,0.00,,,0.00,VWS V14.01,2013-04-08 11:13:00,
2013-04-08 07:18:00,54.5,42.6,28.97,SW,225,6.3,6.3,64,0.00,,,0.00,VWS V14.01,2013-04-08 11:18:00,
2013-04-08 07:23:00,54.5,42.6,28.97,SW,225,6.3,6.3,64,0.00,,,0.00,VWS V14.01,2013-04-08 11:23:00,
2013-04-08 07:28:00,54.5,42.6,28.97,SW,225,6.3,6.3,64,0.00,,,0.00,VWS V14.01,2013-04-08 11:28:00,
2013-04-08 07:33:00,54.5,42.6,28.97,SW,225,6.3,6.3,64,0.00,,,0.00,VWS V14.01,2013-04-08 11:33:00,
2013-04-08 07:38:00,54.5,42.6,28.97,SW,225,6.3,6.3,64,0.00,,,0.00,VWS V14.01,2013-04-08 11:38:00,
2013-04-08 07:43:00,54.5,42.6,28.97,SW,225,6.3,6.3,64,0.00,,,0.00,VWS V14.01,2013-04-08 11:43:00,
2013-04-08 07:48:00,54.5,42.2,28.97,SW,225,6.3,6.3,63,0.00,,,0.00,VWS V14.01,2013-04-08 11:48:00,
2013-04-08 07:53:00,54.9,42.1,28.97,SW,225,6.3,6.3,62,0.00,,,0.00,VWS V14.01,2013-04-08 11:53:00,
2013-04-08 07:58:00,54.9,42.1,28.97,SW,225,6.3,6.3,62,0.00,,,0.00,VWS V14.01,2013-04-08 11:58:00,
2013-04-08 08:03:00,54.9,42.1,28.97,SW,225,6.3,6.3,62,0.00,,,0.00,VWS V14.01,2013-04-08 12:03:00,
2013-04-08 08:08:00,55.9,42.3,28.97,South,180,3.8,3.8,60,0.00,,,0.00,VWS V14.01,2013-04-08 12:08:00,
2013-04-08 08:13:00,56.1,42.0,28.97,SSW,202,2.7,2.7,59,0.00,,,0.00,VWS V14.01,2013-04-08 12:13:00,
2013-04-08 08:18:00,56.3,42.2,28.97,SSW,202,3.1,3.1,59,0.00,,,0.00,VWS V14.01,2013-04-08 12:18:00,
2013-04-08 08:23:00,56.7,42.1,28.97,South,180,3.4,3.4,58,0.00,,,0.00,VWS V14.01,2013-04-08 12:23:00,
2013-04-08 08:28:00,57.0,42.0,28.97,South,180,2.2,2.2,57,0.00,,,0.00,VWS V14.01,2013-04-08 12:28:00,
2013-04-08 08:33:00,57.4,41.8,28.97,South,180,3.6,3.6,56,0.00,,,0.00,VWS V14.01,2013-04-08 12:33:00,
2013-04-08 08:38:00,57.7,41.7,28.97,WSW,248,3.1,3.1,55,0.00,,,0.00,VWS V14.01,2013-04-08 12:38:00,
2013-04-08 08:43:00,57.9,41.4,28.97,SSW,202,5.8,5.8,54,0.00,,,0.00,VWS V14.01,2013-04-08 12:43:00,
2013-04-08 08:48:00,58.1,41.1,28.97,South,180,3.4,3.4,53,0.00,,,0.00,VWS V14.01,2013-04-08 12:48:00,
2013-04-08 08:53:00,58.1,41.1,28.97,South,180,3.4,3.4,53,0.00,,,0.00,VWS V14.01,2013-04-08 12:53:00,
2013-04-08 08:58:00,58.1,40.6,28.97,South,180,3.4,3.4,52,0.00,,,0.00,VWS V14.01,2013-04-08 12:58:00,
2013-04-08 09:03:00,58.1,40.6,28.97,SW,225,2.0,2.0,52,0.00,,,0.00,VWS V14.01,2013-04-08 13:03:00,
2013-04-08 09:08:00,58.3,40.2,28.97,SW,225,5.6,5.6,51,0.00,,,0.00,VWS V14.01,2013-04-08 13:08:00,
2013-04-08 09:13:00,58.5,40.4,28.97,South,180,7.4,7.4,51,0.00,,,0.00,VWS V14.01,2013-04-08 13:13:00,
2013-04-08 09:18:00,58.5,39.9,28.97,South,180,3.6,3.6,50,0.00,,,0.00,VWS V14.01,2013-04-08 13:18:00,
2013-04-08 09:23:00,59.2,40.0,28.97,South,180,6.0,6.0,49,0.00,,,0.00,VWS V14.01,2013-04-08 13:23:00,
2013-04-08 09:30:00,59.5,39.8,28.97,South,180,6.3,6.3,48,0.00,,,0.00,VWS V14.01,2013-04-08 13:30:00,
2013-04-08 09:39:00,59.9,39.6,28.97,South,180,5.4,5.4,47,0.00,,,0.00,VWS V14.01,2013-04-08 13:39:00,
2013-04-08 09:44:00,60.3,40.0,28.97,South,180,5.6,5.6,47,0.00,,,0.00,VWS V14.01,2013-04-08 13:44:00,
2013-04-08 09:49:00,60.6,39.8,28.97,South,180,3.6,3.6,46,0.00,,,0.00,VWS V14.01,2013-04-08 13:49:00,
2013-04-08 09:59:00,61.3,39.8,28.97,SSW,202,3.8,3.8,45,0.00,,,0.00,VWS V14.01,2013-04-08 13:59:00,
2013-04-08 10:04:00,61.3,39.3,28.97,SSW,202,7.6,7.6,44,0.00,,,0.00,VWS V14.01,2013-04-08 14:04:00,
2013-04-08 10:09:00,61.5,39.4,28.97,SSW,202,6.0,6.0,44,0.00,,,0.00,VWS V14.01,2013-04-08 14:09:00,
2013-04-08 10:14:00,61.5,39.4,28.97,South,180,3.4,3.4,44,0.00,,,0.00,VWS V14.01,2013-04-08 14:14:00,
2013-04-08 10:19:00,61.3,39.3,28.97,South,180,6.5,6.5,44,0.00,,,0.00,VWS V14.01,2013-04-08 14:19:00,
2013-04-08 10:24:00,61.3,39.3,28.97,SW,225,6.3,6.3,44,0.00,,,0.00,VWS V14.01,2013-04-08 14:24:00,
2013-04-08 10:29:00,61.7,39.6,28.94,SSW,202,3.6,3.6,44,0.00,,,0.00,VWS V14.01,2013-04-08 14:29:00,
2013-04-08 10:34:00,61.9,39.2,28.94,SSE,158,2.9,2.9,43,0.00,,,0.00,VWS V14.01,2013-04-08 14:34:00,
2013-04-08 10:39:00,62.1,39.3,28.94,SW,225,6.5,6.5,43,0.00,,,0.00,VWS V14.01,2013-04-08 14:39:00,
2013-04-08 10:44:00,62.2,38.9,28.94,South,180,3.8,3.8,42,0.00,,,0.00,VWS V14.01,2013-04-08 14:44:00,
2013-04-08 10:49:00,62.6,39.2,28.94,SW,225,4.5,4.5,42,0.00,,,0.00,VWS V14.01,2013-04-08 14:49:00,
2013-04-08 10:54:00,63.0,38.9,28.94,SW,225,6.5,6.5,41,0.00,,,0.00,VWS V14.01,2013-04-08 14:54:00,
2013-04-08 10:59:00,63.7,38.9,28.94,SSW,202,7.8,7.8,40,0.00,,,0.00,VWS V14.01,2013-04-08 14:59:00,
2013-04-08 11:10:00,64.6,39.1,28.94,South,180,6.0,6.0,39,0.00,,,0.00,VWS V14.01,2013-04-08 15:10:00,
2013-04-08 11:15:00,65.5,39.2,28.94,SSW,202,5.8,5.8,38,0.00,,,0.00,VWS V14.01,2013-04-08 15:15:00,
2013-04-08 11:20:00,66.4,39.3,28.94,SSW,202,7.4,7.4,37,0.00,,,0.00,VWS V14.01,2013-04-08 15:20:00,
2013-04-08 11:25:00,66.6,39.5,28.94,South,180,4.9,4.9,37,0.00,,,0.00,VWS V14.01,2013-04-08 15:25:00,
2013-04-08 11:30:00,66.6,39.5,28.94,WSW,248,10.3,10.3,37,0.00,,,0.00,VWS V14.01,2013-04-08 15:30:00,
2013-04-08 11:35:00,66.6,39.5,28.94,SSW,202,10.3,10.3,37,0.00,,,0.00,VWS V14.01,2013-04-08 15:35:00,
2013-04-08 11:40:00,67.3,40.1,28.94,WSW,248,11.0,11.0,37,0.00,,,0.00,VWS V14.01,2013-04-08 15:40:00,
2013-04-08 11:45:00,68.0,40.1,28.94,SW,225,10.5,10.5,36,0.00,,,0.00,VWS V14.01,2013-04-08 15:45:00,
2013-04-08 11:50:00,69.1,40.3,28.94,South,180,5.6,5.6,35,0.00,,,0.00,VWS V14.01,2013-04-08 15:50:00,
2013-04-08 11:55:00,69.4,40.6,28.94,SSW,202,10.5,10.5,35,0.00,,,0.00,VWS V14.01,2013-04-08 15:55:00,
2013-04-08 12:00:00,69.3,40.5,28.94,SSW,202,8.1,8.1,35,0.00,,,0.00,VWS V14.01,2013-04-08 16:00:00,
2013-04-08 12:05:00,69.4,39.9,28.94,South,180,13.2,13.2,34,0.00,,,0.00,VWS V14.01,2013-04-08 16:05:00,
2013-04-08 12:10:00,69.4,39.9,28.94,South,180,6.5,6.5,34,0.00,,,0.00,VWS V14.01,2013-04-08 16:10:00,
2013-04-08 12:15:00,70.0,40.3,28.94,SSW,202,10.3,10.3,34,0.00,,,0.00,VWS V14.01,2013-04-08 16:15:00,
2013-04-08 12:20:00,70.0,40.3,28.94,SSW,202,10.3,10.3,34,0.00,,,0.00,VWS V14.01,2013-04-08 16:20:00,
2013-04-08 12:25:00,69.8,40.2,28.94,South,180,9.6,9.6,34,0.00,,,0.00,VWS V14.01,2013-04-08 16:25:00,
2013-04-08 12:30:00,69.6,40.0,28.94,South,180,9.8,9.8,34,0.00,,,0.00,VWS V14.01,2013-04-08 16:30:00,
2013-04-08 12:35:00,69.3,39.7,28.94,WSW,248,7.4,7.4,34,0.00,,,0.00,VWS V14.01,2013-04-08 16:35:00,
2013-04-08 12:40:00,68.7,39.2,28.94,SW,225,9.6,9.6,34,0.00,,,0.00,VWS V14.01,2013-04-08 16:40:00,
2013-04-08 12:45:00,68.0,39.3,28.94,SSW,202,6.5,6.5,35,0.00,,,0.00,VWS V14.01,2013-04-08 16:45:00,
2013-04-08 12:50:00,67.6,39.0,28.94,SSW,202,17.2,17.2,35,0.00,,,0.00,VWS V14.01,2013-04-08 16:50:00,
2013-04-08 12:55:00,67.5,39.6,28.94,SSW,202,7.8,7.8,36,0.00,,,0.00,VWS V14.01,2013-04-08 16:55:00,
2013-04-08 13:00:00,67.3,39.4,28.94,SSW,202,10.1,10.1,36,0.00,,,0.00,VWS V14.01,2013-04-08 17:00:00,
2013-04-08 13:05:00,67.3,39.4,28.94,West,270,10.1,10.1,36,0.00,,,0.00,VWS V14.01,2013-04-08 17:05:00,
2013-04-08 13:10:00,67.3,39.4,28.94,South,180,5.8,5.8,36,0.00,,,0.00,VWS V14.01,2013-04-08 17:10:00,
2013-04-08 13:15:00,67.1,39.3,28.94,SW,225,7.2,7.2,36,0.00,,,0.00,VWS V14.01,2013-04-08 17:15:00,
2013-04-08 13:20:00,67.5,39.6,28.94,SSW,202,6.3,6.3,36,0.00,,,0.00,VWS V14.01,2013-04-08 17:20:00,
2013-04-08 13:25:00,67.5,39.6,28.94,SW,225,7.6,7.6,36,0.00,,,0.00,VWS V14.01,2013-04-08 17:25:00,
2013-04-08 13:30:00,67.5,40.3,28.94,South,180,5.8,5.8,37,0.00,,,0.00,VWS V14.01,2013-04-08 17:30:00,
2013-04-08 13:35:00,67.5,40.3,28.94,SSW,202,7.4,7.4,37,0.00,,,0.00,VWS V14.01,2013-04-08 17:35:00,
2013-04-08 13:40:00,67.6,40.5,28.94,SW,225,6.3,6.3,37,0.00,,,0.00,VWS V14.01,2013-04-08 17:40:00,
2013-04-08 13:45:00,67.8,40.6,28.94,SW,225,5.8,5.8,37,0.00,,,0.00,VWS V14.01,2013-04-08 17:45:00,
2013-04-08 13:50:00,67.5,41.7,28.94,South,180,7.4,7.4,39,0.00,,,0.00,VWS V14.01,2013-04-08 17:50:00,
2013-04-08 13:55:00,67.3,40.8,28.94,SW,225,9.0,9.0,38,0.00,,,0.00,VWS V14.01,2013-04-08 17:55:00,
2013-04-08 14:00:00,68.5,41.3,28.91,SSW,202,9.0,9.0,37,0.00,,,0.00,VWS V14.01,2013-04-08 18:00:00,
2013-04-08 14:05:00,69.4,41.3,28.91,SSW,202,6.0,6.0,36,0.00,,,0.00,VWS V14.01,2013-04-08 18:05:00,
2013-04-08 14:10:00,70.0,41.8,28.91,South,180,10.7,10.7,36,0.00,,,0.00,VWS V14.01,2013-04-08 18:10:00,
2013-04-08 14:15:00,70.2,41.3,28.91,SSW,202,11.0,11.0,35,0.00,,,0.00,VWS V14.01,2013-04-08 18:15:00,
2013-04-08 14:20:00,70.9,41.9,28.91,SW,225,6.5,6.5,35,0.00,,,0.00,VWS V14.01,2013-04-08 18:20:00,
2013-04-08 14:25:00,71.8,41.9,28.91,SW,225,5.4,5.4,34,0.00,,,0.00,VWS V14.01,2013-04-08 18:25:00,
2013-04-08 14:30:00,72.0,41.3,28.91,SW,225,8.7,8.7,33,0.00,,,0.00,VWS V14.01,2013-04-08 18:30:00,
2013-04-08 14:35:00,72.5,41.8,28.91,WSW,248,7.2,7.2,33,0.00,,,0.00,VWS V14.01,2013-04-08 18:35:00,
2013-04-08 14:40:00,72.5,41.8,28.91,SW,225,12.8,12.8,33,0.00,,,0.00,VWS V14.01,2013-04-08 18:40:00,
2013-04-08 14:45:00,72.7,41.2,28.91,SW,225,12.3,12.3,32,0.00,,,0.00,VWS V14.01,2013-04-08 18:45:00,
2013-04-08 14:50:00,73.4,41.8,28.91,South,180,5.6,5.6,32,0.00,,,0.00,VWS V14.01,2013-04-08 18:50:00,
2013-04-08 14:55:00,73.9,41.4,28.91,SW,225,12.1,12.1,31,0.00,,,0.00,VWS V14.01,2013-04-08 18:55:00,
2013-04-08 15:05:00,72.9,41.3,28.91,SW,225,14.8,14.8,32,0.00,,,0.00,VWS V14.01,2013-04-08 19:05:00,
2013-04-08 15:10:00,73.2,41.6,28.91,WSW,248,5.6,5.6,32,0.00,,,0.00,VWS V14.01,2013-04-08 19:10:00,
2013-04-08 15:15:00,73.6,41.9,28.91,SSW,202,13.0,13.0,32,0.00,,,0.00,VWS V14.01,2013-04-08 19:15:00,
2013-04-08 15:20:00,73.9,41.4,28.91,SSW,202,8.7,8.7,31,0.00,,,0.00,VWS V14.01,2013-04-08 19:20:00,
2013-04-08 15:25:00,74.3,41.7,28.91,SW,225,7.6,7.6,31,0.00,,,0.00,VWS V14.01,2013-04-08 19:25:00,
2013-04-08 15:30:00,74.1,41.6,28.88,SW,225,17.2,17.2,31,0.00,,,0.00,VWS V14.01,2013-04-08 19:30:00,
2013-04-08 15:36:00,74.1,41.6,28.88,WSW,248,9.6,9.6,31,0.00,,,0.00,VWS V14.01,2013-04-08 19:36:00,
2013-04-08 15:41:00,73.4,41.0,28.88,SW,225,12.8,12.8,31,0.00,,,0.00,VWS V14.01,2013-04-08 19:41:00,
2013-04-08 15:46:00,72.5,41.0,28.88,WSW,248,8.1,8.1,32,0.00,,,0.00,VWS V14.01,2013-04-08 19:46:00,
2013-04-08 15:51:00,72.7,41.2,28.88,SW,225,6.0,6.0,32,0.00,,,0.00,VWS V14.01,2013-04-08 19:51:00,
2013-04-08 15:56:00,72.3,40.8,28.88,WSW,248,12.5,12.5,32,0.00,,,0.00,VWS V14.01,2013-04-08 19:56:00,
2013-04-08 16:01:00,72.3,40.8,28.88,SW,225,7.6,7.6,32,0.00,,,0.00,VWS V14.01,2013-04-08 20:01:00,
2013-04-08 16:06:00,72.0,40.5,28.88,SSW,202,8.1,8.1,32,0.00,,,0.00,VWS V14.01,2013-04-08 20:06:00,
2013-04-08 16:11:00,71.6,40.2,28.88,WSW,248,9.0,9.0,32,0.00,,,0.00,VWS V14.01,2013-04-08 20:11:00,
2013-04-08 16:16:00,71.6,40.2,28.88,South,180,10.7,10.7,32,0.00,,,0.00,VWS V14.01,2013-04-08 20:16:00,
2013-04-08 16:21:00,71.2,40.7,28.88,WSW,248,6.3,6.3,33,0.00,,,0.00,VWS V14.01,2013-04-08 20:21:00,
2013-04-08 16:26:00,71.1,40.5,28.88,West,270,8.5,8.5,33,0.00,,,0.00,VWS V14.01,2013-04-08 20:26:00,
2013-04-08 16:31:00,71.2,40.7,28.88,West,270,3.8,3.8,33,0.00,,,0.00,VWS V14.01,2013-04-08 20:31:00,
2013-04-08 16:36:00,71.2,40.7,28.88,SW,225,5.8,5.8,33,0.00,,,0.00,VWS V14.01,2013-04-08 20:36:00,
2013-04-08 16:41:00,71.1,41.3,28.88,SW,225,10.7,10.7,34,0.00,,,0.00,VWS V14.01,2013-04-08 20:41:00,
2013-04-08 16:50:00,71.1,41.3,28.88,SSW,202,6.0,6.0,34,0.00,,,0.00,VWS V14.01,2013-04-08 20:50:00,
2013-04-08 17:00:00,71.1,41.3,28.88,SW,225,9.8,9.8,34,0.00,,,0.00,VWS V14.01,2013-04-08 21:00:00,
2013-04-08 17:06:00,71.1,41.3,28.88,SW,225,6.3,6.3,34,0.00,,,0.00,VWS V14.01,2013-04-08 21:06:00,
2013-04-08 17:11:00,71.6,41.0,28.88,SW,225,9.8,9.8,33,0.00,,,0.00,VWS V14.01,2013-04-08 21:11:00,
2013-04-08 17:16:00,72.1,41.5,28.88,SSW,202,5.4,5.4,33,0.00,,,0.00,VWS V14.01,2013-04-08 21:16:00,
2013-04-08 17:21:00,72.1,41.5,28.88,SW,225,10.1,10.1,33,0.00,,,0.00,VWS V14.01,2013-04-08 21:21:00,
2013-04-08 17:26:00,72.1,41.5,28.88,WSW,248,10.7,10.7,33,0.00,,,0.00,VWS V14.01,2013-04-08 21:26:00,
2013-04-08 17:31:00,72.5,41.8,28.88,SW,225,5.8,5.8,33,0.00,,,0.00,VWS V14.01,2013-04-08 21:31:00,
2013-04-08 17:37:00,72.7,42.0,28.88,WSW,248,3.1,3.1,33,0.00,,,0.00,VWS V14.01,2013-04-08 21:37:00,
2013-04-08 17:42:00,73.4,42.6,28.88,SW,225,5.8,5.8,33,0.00,,,0.00,VWS V14.01,2013-04-08 21:42:00,
2013-04-08 17:47:00,73.6,41.9,28.88,South,180,7.4,7.4,32,0.00,,,0.00,VWS V14.01,2013-04-08 21:47:00,
2013-04-08 17:52:00,72.9,42.1,28.88,SW,225,12.5,12.5,33,0.00,,,0.00,VWS V14.01,2013-04-08 21:52:00,
2013-04-08 17:57:00,72.7,42.0,28.88,SW,225,8.7,8.7,33,0.00,,,0.00,VWS V14.01,2013-04-08 21:57:00,
2013-04-08 18:02:00,72.5,41.8,28.88,SW,225,10.3,10.3,33,0.00,,,0.00,VWS V14.01,2013-04-08 22:02:00,
2013-04-08 18:07:00,72.3,41.6,28.88,South,180,4.0,4.0,33,0.00,,,0.00,VWS V14.01,2013-04-08 22:07:00,
2013-04-08 18:12:00,72.3,41.6,28.88,SW,225,6.0,6.0,33,0.00,,,0.00,VWS V14.01,2013-04-08 22:12:00,
2013-04-08 18:17:00,72.0,41.3,28.91,SW,225,4.3,4.3,33,0.00,,,0.00,VWS V14.01,2013-04-08 22:17:00,
2013-04-08 18:22:00,71.8,41.2,28.91,SSW,202,12.8,12.8,33,0.00,,,0.00,VWS V14.01,2013-04-08 22:22:00,
2013-04-08 18:27:00,71.6,41.0,28.91,SSW,202,8.7,8.7,33,0.00,,,0.00,VWS V14.01,2013-04-08 22:27:00,
2013-04-08 18:32:00,71.8,41.2,28.91,SSW,202,7.4,7.4,33,0.00,,,0.00,VWS V14.01,2013-04-08 22:32:00,
2013-04-08 18:37:00,71.8,41.2,28.91,SSW,202,14.5,14.5,33,0.00,,,0.00,VWS V14.01,2013-04-08 22:37:00,
2013-04-08 18:42:00,71.6,41.0,28.91,South,180,11.0,11.0,33,0.00,,,0.00,VWS V14.01,2013-04-08 22:42:00,
2013-04-08 18:47:00,71.4,40.8,28.91,West,270,4.3,4.3,33,0.00,,,0.00,VWS V14.01,2013-04-08 22:47:00,
2013-04-08 18:52:00,71.6,41.0,28.91,WSW,248,4.3,4.3,33,0.00,,,0.00,VWS V14.01,2013-04-08 22:52:00,
2013-04-08 18:57:00,71.6,41.0,28.91,SSW,202,8.1,8.1,33,0.00,,,0.00,VWS V14.01,2013-04-08 22:57:00,
2013-04-08 19:02:00,71.4,40.8,28.91,WSW,248,5.4,5.4,33,0.00,,,0.00,VWS V14.01,2013-04-08 23:02:00,
2013-04-08 19:07:00,71.1,41.3,28.91,WSW,248,3.8,3.8,34,0.00,,,0.00,VWS V14.01,2013-04-08 23:07:00,
2013-04-08 19:12:00,70.9,41.1,28.91,West,270,3.8,3.8,34,0.00,,,0.00,VWS V14.01,2013-04-08 23:12:00,
2013-04-08 19:17:00,70.5,40.8,28.91,SW,225,10.7,10.7,34,0.00,,,0.00,VWS V14.01,2013-04-08 23:17:00,
2013-04-08 19:22:00,70.2,40.5,28.91,WSW,248,4.0,4.0,34,0.00,,,0.00,VWS V14.01,2013-04-08 23:22:00,
2013-04-08 19:27:00,70.0,40.3,28.91,SW,225,4.3,4.3,34,0.00,,,0.00,VWS V14.01,2013-04-08 23:27:00,
2013-04-08 19:33:00,69.8,40.9,28.91,SW,225,10.5,10.5,35,0.00,,,0.00,VWS V14.01,2013-04-08 23:33:00,
2013-04-08 19:38:00,69.8,40.9,28.91,SSW,202,9.0,9.0,35,0.00,,,0.00,VWS V14.01,2013-04-08 23:38:00,
2013-04-08 19:43:00,69.4,40.6,28.91,WSW,248,8.5,8.5,35,0.00,,,0.00,VWS V14.01,2013-04-08 23:43:00,
2013-04-08 19:48:00,69.1,41.0,28.91,SW,225,6.5,6.5,36,0.00,,,0.00,VWS V14.01,2013-04-08 23:48:00,
2013-04-08 19:53:00,68.7,40.7,28.91,SW,225,4.3,4.3,36,0.00,,,0.00,VWS V14.01,2013-04-08 23:53:00,
2013-04-08 19:58:00,68.4,41.1,28.91,SW,225,5.8,5.8,37,0.00,,,0.00,VWS V14.01,2013-04-08 23:58:00,
2013-04-08 20:03:00,68.0,40.8,28.91,SW,225,7.6,7.6,37,0.00,,,0.00,VWS V14.01,2013-04-09 00:03:00,
2013-04-08 20:08:00,67.8,41.3,28.91,SW,225,6.0,6.0,38,0.00,,,0.00,VWS V14.01,2013-04-09 00:08:00,
2013-04-08 20:13:00,67.6,41.2,28.91,SW,225,5.8,5.8,38,0.00,,,0.00,VWS V14.01,2013-04-09 00:13:00,
2013-04-08 20:18:00,67.5,41.0,28.91,SW,225,6.3,6.3,38,0.00,,,0.00,VWS V14.01,2013-04-09 00:18:00,
2013-04-08 20:23:00,67.3,41.5,28.91,SW,225,4.9,4.9,39,0.00,,,0.00,VWS V14.01,2013-04-09 00:23:00,
2013-04-08 20:28:00,67.1,42.0,28.91,SW,225,7.4,7.4,40,0.00,,,0.00,VWS V14.01,2013-04-09 00:28:00,
2013-04-08 20:33:00,66.9,41.8,28.94,SW,225,6.0,6.0,40,0.00,,,0.00,VWS V14.01,2013-04-09 00:33:00,
2013-04-08 20:38:00,66.6,41.5,28.94,SSW,202,5.6,5.6,40,0.00,,,0.00,VWS V14.01,2013-04-09 00:38:00,
2013-04-08 20:43:00,66.6,42.2,28.94,SW,225,8.1,8.1,41,0.00,,,0.00,VWS V14.01,2013-04-09 00:43:00,
2013-04-08 20:48:00,66.4,42.0,28.94,South,180,3.8,3.8,41,0.00,,,0.00,VWS V14.01,2013-04-09 00:48:00,
2013-04-08 20:53:00,66.0,42.3,28.94,SSW,202,7.4,7.4,42,0.00,,,0.00,VWS V14.01,2013-04-09 00:53:00,
2013-04-08 20:58:00,66.0,42.9,28.94,SSW,202,2.9,2.9,43,0.00,,,0.00,VWS V14.01,2013-04-09 00:58:00,
2013-04-08 21:03:00,65.8,42.7,28.94,SW,225,5.6,5.6,43,0.00,,,0.00,VWS V14.01,2013-04-09 01:03:00,
2013-04-08 21:08:00,65.7,42.6,28.94,SSW,202,7.2,7.2,43,0.00,,,0.00,VWS V14.01,2013-04-09 01:08:00,
2013-04-08 21:13:00,65.7,42.6,28.94,SW,225,3.8,3.8,43,0.00,,,0.00,VWS V14.01,2013-04-09 01:13:00,
2013-04-08 21:18:00,65.3,42.2,28.94,SW,225,6.0,6.0,43,0.00,,,0.00,VWS V14.01,2013-04-09 01:18:00,
2013-04-08 21:23:00,65.3,42.2,28.94,SW,225,8.5,8.5,43,0.00,,,0.00,VWS V14.01,2013-04-09 01:23:00,
2013-04-08 21:28:00,65.1,42.7,28.94,SW,225,3.8,3.8,44,0.00,,,0.00,VWS V14.01,2013-04-09 01:28:00,
2013-04-08 21:33:00,65.1,42.7,28.97,West,270,7.4,7.4,44,0.00,,,0.00,VWS V14.01,2013-04-09 01:33:00,
2013-04-08 21:38:00,64.9,42.5,28.97,SW,225,7.6,7.6,44,0.00,,,0.00,VWS V14.01,2013-04-09 01:38:00,
2013-04-08 21:43:00,64.8,42.4,28.97,South,180,3.8,3.8,44,0.00,,,0.00,VWS V14.01,2013-04-09 01:43:00,
2013-04-08 21:48:00,64.8,42.4,28.97,SW,225,7.8,7.8,44,0.00,,,0.00,VWS V14.01,2013-04-09 01:48:00,
2013-04-08 21:53:00,64.8,42.4,28.97,SSW,202,9.6,9.6,44,0.00,,,0.00,VWS V14.01,2013-04-09 01:53:00,
2013-04-08 21:58:00,64.6,42.8,28.97,SW,225,4.3,4.3,45,0.00,,,0.00,VWS V14.01,2013-04-09 01:58:00,
2013-04-08 22:03:00,64.4,42.6,28.97,South,180,5.4,5.4,45,0.00,,,0.00,VWS V14.01,2013-04-09 02:03:00,
2013-04-08 22:08:00,64.2,42.5,28.97,SSW,202,5.6,5.6,45,0.00,,,0.00,VWS V14.01,2013-04-09 02:08:00,
2013-04-08 22:13:00,64.2,43.0,28.97,SW,225,6.0,6.0,46,0.00,,,0.00,VWS V14.01,2013-04-09 02:13:00,
2013-04-08 22:18:00,64.2,43.0,28.97,SW,225,2.7,2.7,46,0.00,,,0.00,VWS V14.01,2013-04-09 02:18:00,
2013-04-08 22:23:00,64.0,42.9,28.97,SW,225,5.6,5.6,46,0.00,,,0.00,VWS V14.01,2013-04-09 02:23:00,
2013-04-08 22:28:00,63.9,42.7,28.97,SSW,202,5.4,5.4,46,0.00,,,0.00,VWS V14.01,2013-04-09 02:28:00,
2013-04-08 22:33:00,63.7,42.5,28.97,WSW,248,6.3,6.3,46,0.00,,,0.00,VWS V14.01,2013-04-09 02:33:00,
2013-04-08 22:38:00,63.5,42.4,28.97,SW,225,2.0,2.0,46,0.00,,,0.00,VWS V14.01,2013-04-09 02:38:00,
2013-04-08 22:43:00,63.3,42.8,28.97,SW,225,5.6,5.6,47,0.00,,,0.00,VWS V14.01,2013-04-09 02:43:00,
2013-04-08 22:48:00,63.3,42.8,28.97,SW,225,2.2,2.2,47,0.00,,,0.00,VWS V14.01,2013-04-09 02:48:00,
2013-04-08 22:53:00,63.1,42.6,28.97,SW,225,3.4,3.4,47,0.00,,,0.00,VWS V14.01,2013-04-09 02:53:00,
2013-04-08 22:58:00,63.0,42.4,28.97,SW,225,2.9,2.9,47,0.00,,,0.00,VWS V14.01,2013-04-09 02:58:00,
2013-04-08 23:03:00,63.0,43.0,29.00,WSW,248,3.4,3.4,48,0.00,,,0.00,VWS V14.01,2013-04-09 03:03:00,
2013-04-08 23:08:00,62.8,42.3,29.00,SSW,202,2.9,2.9,47,0.00,,,0.00,VWS V14.01,2013-04-09 03:08:00,
2013-04-08 23:13:00,62.6,42.1,29.00,WSW,248,3.1,3.1,47,0.00,,,0.00,VWS V14.01,2013-04-09 03:13:00,
2013-04-08 23:20:00,62.4,42.5,29.00,South,180,2.9,2.9,48,0.00,,,0.00,VWS V14.01,2013-04-09 03:20:00,
2013-04-08 23:29:00,62.1,42.2,29.00,SSW,202,2.5,2.5,48,0.00,,,0.00,VWS V14.01,2013-04-09 03:29:00,
2013-04-08 23:34:00,62.1,42.2,29.00,South,180,1.6,1.6,48,0.00,,,0.00,VWS V14.01,2013-04-09 03:34:00,
2013-04-08 23:39:00,61.7,42.4,29.00,SW,225,2.0,2.0,49,0.00,,,0.00,VWS V14.01,2013-04-09 03:39:00,
2013-04-08 23:44:00,61.3,42.0,29.00,South,180,0.0,0.0,49,0.00,,,0.00,VWS V14.01,2013-04-09 03:44:00,
2013-04-08 23:49:00,61.0,41.7,29.00,South,180,2.5,2.5,49,0.00,,,0.00,VWS V14.01,2013-04-09 03:49:00,
2013-04-08 23:54:00,60.6,41.9,29.00,SSW,202,0.0,0.0,50,0.00,,,0.00,VWS V14.01,2013-04-09 03:54:00,